Hourly Data Report for April 16, 2017

KENORA A
ONTARIO

49°47'18.000" N
94°21'47.000" W
409.70 m
6034076
71850
YQK

Download Data

Hourly Data (April 2017)
Hourly Data Report for April 16, 2017
TIME
LST
Temp Definition
°C
Dew Point Definition
°C
Rel Hum Definition
%
Precip. Amount Definition
mm

Wind Dir Definition
10's deg

Wind Spd Definition
km/h
Visibility Definition
km
Stn Press Definition
kPa
Hmdx Definition


Wind Chill Definition


Weather Definition


00:00 6.1 1.1 70   7 22 24.1 96.08     Mostly Cloudy
01:00 4.3 1.7 83   7 18 24.1 96.08     LegendNANA
02:00 3.8 1.7 86   10 4 24.1 96.09     LegendNANA
03:00 4.1 1.8 85   8 9 24.1 96.18     Cloudy
04:00 3.5 2.5 93   6 11 16.1 96.13     Rain Showers
05:00 2.8 2.4 97   5 13 24.1 96.09     Rain Showers
06:00 2.6 2.2 97   6 19 16.1 96.07     Rain Showers
07:00 2.1 1.7 97   7 26 24.1 96.07     Rain Showers
08:00 1.0 0.6 97   5 13 19.3 96.16     Rain Showers,Snow Showers
09:00 0.3 -0.3 96   5 15 3.2 96.24     Snow Showers
10:00 -0.1 -0.7 96   5 14 2.4 96.35   -4 Snow Showers
11:00 0.5 -0.1 96   6 15 4.8 96.40     Snow Showers
12:00 1.7 0.8 94   7 15 24.1 96.44     Mostly Cloudy
13:00 2.6 0.2 84   11 5 24.1 96.53     LegendNANA
14:00 2.9 0.8 86   36 2 24.1 96.59     LegendNANA
15:00 3.9 0.4 78   29 4 24.1 96.64     Cloudy
16:00 4.6 1.6 81   9 9 24.1 96.66     LegendNANA
17:00 4.2 0.5 77   8 11 24.1 96.71     LegendNANA
18:00 3.8 0.0 76   8 6 24.1 96.76     Mostly Cloudy
19:00 0.3 -0.1 97   28 15 0.8 96.89     Snow Showers, Fog
20:00 0.0 -0.4 97   29 16 0.8 96.96   -5 Moderate Snow Showers
21:00 -0.1 -0.4 98   29 10 1.6 96.99   -3 Snow Showers
22:00 -0.1 -0.5 97   29 12 1.6 97.01   -4 Snow Showers
23:00 -0.2 -0.6 97   28 9 8.1 97.04   -3 Snow Showers

Notes on Data Quality.

Legend

  • E = Estimated
  • M = Missing
  • NA = Not Available*
  • [empty] = Indicates an unobserved value
Date modified: